Other Public Products
Issued by NWS Grand Forks, ND

Home | Current Version | Previous Version | Text Only | Print | Product List | Glossary On
Versions: 1 2 3 4 5 6 7 8 9 10 11 12 13 14 15 16 17 18 19 20 21 22 23 24 25 26 27 28 29 30 31 32 33 34 35 36 37 38 39 40 41 42 43 44 45 46 47 48 49 50
000
FPUS83 KFGF 231531
OPUFGF
PRAIRIE TO PINES WEATHER ROUNDUP
NATIONAL WEATHER SERVICE EASTERN NORTH DAKOTA/GRAND FORKS ND
1000 AM CDT FRI JUN 23 2017

 **SATELLITE DATA USED TO AUGMENT SKY COVER AT AUTOMATED STATIONS**
 *****  WEATHER ACROSS EASTERN NORTH DAKOTA  *****

CITY           SKY/WX    TMP DP  RH WIND       PRES   REMARKS
GRAND FORKS    CLOUDY    60  51  72 NW15G26   29.84R
GRAND FORKS AF CLOUDY    59  49  69 N17G26    29.85R
GRAND CITY NWS NOT AVBL
BUXTON           N/A     60  54  80 NW18        N/A
DEVILS LAKE    CLOUDY    57  45  62 NW21G29   29.92R
FARGO          CLOUDY    61  51  70 NW21      29.86R
WAHPETON ARPT  CLOUDY    61  50  67 NW20G30   29.87S
$$

 *****  WEATHER ACROSS CENTRAL AND WESTERN NORTH DAKOTA  *****

CITY           SKY/WX    TMP DP  RH WIND       PRES   REMARKS
JAMESTOWN      CLOUDY    57  45  64 NW24G31   29.94R
BISMARCK       CLOUDY    57  36  45 NW28G36   30.07R
MINOT          PTSUNNY   57  39  51 NW21G29   30.02S
MINOT AFB      FAIR      56  39  52 NW24G30   30.00F
GARRISON         N/A     53  37  54 NW25G35   30.06R
WILLISTON      FAIR      57  39  51 NW23G30   30.14S
DICKINSON      PTSUNNY   55  33  43 NW24G33   30.13R
HETTINGER      FAIR      57  32  38 W28G36    30.16S
$$

 *****  OTHER OBSERVATIONS NORTHEAST NORTH DAKOTA  *****

CITY           SKY/WX    TMP DP  RH WIND       PRES   REMARKS
WALHALLA       NOT AVBL
LANGDON        CLOUDY    55  50  82 NW21G26   29.89R
CAVALIER       CLOUDY    57  48  72 NW16G24   29.84R
GRAFTON        CLOUDY    59  52  77 NW17G28   29.86S
CANDO          NOT AVBL
FORT TOTTEN      N/A     55  47  73 NW9       29.95S
ROLLA            N/A     54  41  62 NW28G35   29.93S
RUGBY          NOT AVBL
 ***** THE ABOVE OBSERVATIONS ARE NON NWS ARE NOT QUALITY
        CONTROLLED AND MAY MIS-REPORT RAIN FOR SNOW...
$$

 *****  OTHER OBSERVATIONS SOUTHEAST NORTH DAKOTA *****

CITY           SKY/WX    TMP DP  RH WIND       PRES   REMARKS
COOPERSTOWN    CLOUDY    57  48  72 NW23G29   29.92R
VALLEY CITY    CLOUDY    57  50  77 NW21      29.94R
OAKES          NOT AVBL
GWINNER        CLOUDY    61  48  63 NW18G29   29.93S
SHEYENNE NWR     N/A     61  50  67 NW15      29.95S
BUFFALO          N/A     59  48  67 NW17G29     N/A
WYNDMERE       NOT AVBL
 ***** THE ABOVE OBSERVATIONS ARE NON NWS ARE NOT QUALITY
       CONTROLLED AND MAY MIS-REPORT RAIN FOR SNOW...
$$

  *****  WEATHER ACROSS NORTHERN MINNESOTA  *****

CITY           SKY/WX    TMP DP  RH WIND       PRES   REMARKS
FLAG ISLAND    PTSUNNY   61  52  72 NW15      29.70S
WARROAD        FAIR      63  55  77 NW14      29.73S
ROSEAU           N/A     61  55  82 NW16G23   29.75R
HALLOCK        PTSUNNY   61  52  72 NW18G24   29.81S
THF RVR FALLS  NOT AVBL
HALSTAD          N/A     59  50  71 NW16        N/A
FOSSTON        CLOUDY    57  52  82 NW10      29.81S
BAUDETTE       CLOUDY    60  53  77 NW16G24   29.71R
WASKISH        CLOUDY    63  52  67 NW10      29.73S
CROOKSTON      PTSUNNY   63  52  67 NW22G28   29.83R
$$
  *****  WEATHER ACROSS CENTRAL AND WEST MINNESOTA  *****

CITY           SKY/WX    TMP DP  RH WIND       PRES   REMARKS
BEMIDJI        CLOUDY    59  51  74 NW17G26   29.77S
PARK RAPIDS    CLOUDY    63  48  58 NW16G24   29.79S
WADENA         PTSUNNY   63  50  63 NW18G26   29.81S
DETROIT LAKES  PTSUNNY   59  54  82 NW13      29.84S
MOORHEAD       CLOUDY    59  52  77 NW20      29.87R
FERGUS FALLS   PTSUNNY   61  54  77 NW21      29.84R
ELBOW LAKE     DRIZZLE   57  55  92 W18       29.86S
MORRIS MN      PTSUNNY   64  54  68 W22G28    29.86R
STAPLES        PTSUNNY   63  48  59 NW20G25   29.80S
WHEATON        PTSUNNY   63  50  63 W17G24    29.90R
$$
  *****  WEATHER ELSEWHERE ACROSS MINNESOTA  *****

CITY           SKY/WX    TMP DP  RH WIND       PRES   REMARKS
DULUTH         PTSUNNY   62  51  67 W18G25    29.69R
INTRNTL FALLS  CLOUDY    59  51  75 NW12G21   29.68R
ELY            PTSUNNY   57  46  67 NW14G21   29.65R
CLOQUET        PTSUNNY   63  46  55 W12G17    29.71S
BRAINERD       CLOUDY    61  49  64 NW15G24   29.79R
HIBBING        PTSUNNY   59  49  69 NW12G23   29.70R
ALEXANDRIA     CLOUDY    59  54  83 NW17G28   29.85S
SAINT CLOUD    CLOUDY    63  53  70 NW15G22   29.78F
MINNEAPOLIS    FAIR      66  50  56 W17G23    29.80R
$$

  *****  WEATHER ACROSS SOUTH DAKOTA  *****

CITY           SKY/WX    TMP DP  RH WIND       PRES   REMARKS
SIOUX FALLS    CLOUDY    63  52  67 NW16G31   29.98R
BROOKINGS      CLOUDY    61  51  70 NW24      29.94S
WATERTOWN      LGT RAIN  56  52  86 NW23G31   29.95R
HURON          CLOUDY    62  51  67 NW28G36   30.00R
SISSETON         N/A     64  50  60 NW25G33   29.89S
ABERDEEN       CLOUDY    59  48  67 NW22G29   29.99R
MITCHELL       PTSUNNY   63  50  62 NW25G35   30.02R
PIERRE         CLOUDY    58  47  66 NW18G31   30.10S
MOBRIDGE       PTSUNNY   60  42  51 NW18G29   30.04S
RAPID CITY     FAIR      59  39  47 N23G30    30.20F
$$

  *****  SOME WEATHER IN NEARBY STATES *****

CITY           SKY/WX    TMP DP  RH WIND       PRES   REMARKS
GLASGOW MT     PTSUNNY   55  38  52 NW15      30.22S
GREAT FALLS MT FAIR      53  38  56 SW3       30.32S
CHEYENNE WY    CLOUDY    51  37  58 N8        30.32R
SCOTTSBLUFF NE PTSUNNY   60  38  43 NW16G22   30.26R
OMAHA NE       CLOUDY    68  48  48 N20G30    29.97R
DES MOINES IA  FAIR      75  54  47 NW10      29.85S
DAVENPORT IA   FAIR      71  61  70 NW10      29.78S
CHICAGO IL     CLOUDY    71  61  70 N8        29.70S
EAU CLAIRE WI  FAIR      67  53  61 W10       29.73S
LA CROSSE WI   FAIR      73  58  59 W9        29.74S
$$

  *****  SOME NATIONAL WEATHER *****

CITY           SKY/WX    TMP DP  RH WIND       PRES   REMARKS
LA GUARDIA NY  CLOUDY    81  74  79 SW14G22   29.77F
RALEIGH NC     PTSUNNY   81  75  82 SW17      29.98F
ATLANTA GA     PTSUNNY   80  71  74 S12G21    30.03R
NEW ORLEANS LA PTSUNNY   84  76  76 S18G24    29.94R HX  93
OKLAHOMA CITY  FAIR      86  69  56 NW10      29.82R HX  90
ALBUQUERQUE NM PTSUNNY   76  32  20 N8        30.10R
SALT LAKE CITY SUNNY     70  36  28 S7        30.17R
LOS ANGELES CA CLOUDY    65  62  90 W8        29.91R FOG
BOISE ID       FAIR      59  37  44 CALM      30.21R
SEATTLE WA     FAIR      62  49  62 N9        30.24R
$$

*** WEATHER ACROSS MANITOBA...SASKATCHEWAN AND ONTARIO ***
                ***ONTARIO***

CITY           SKY/WX    TMP DP  RH WIND       PRES   REMARKS
GERALDTON      PTSUNNY   61  52  72 NW6       29.53S
THUNDER BAY    LGT RAIN  63  50  63 W9G20     29.55R
SIOUX LOOKOUT  PTSUNNY   59  52  77 NW9       29.60R
TORONTO        LGT RAIN  68  66  94 S7        29.59F
BIG TROUT LK   SUNNY     63  46  55 SE6       29.62S
PICKLE LAKE    PTSUNNY   61  48  63 NE3       29.56R
DRYDEN         PTSUNNY   61  52  72 NW10      29.63
KENORA         PTSUNNY   57  52  82 NW13      29.70R
$$
                *** MANITOBA***

CITY           SKY/WX    TMP DP  RH WIND       PRES   REMARKS
BRANDON        PTSUNNY   55  43  62 NW22G31   29.92R
DAUPHIN        CLOUDY    54  43  66 NW17G25   29.89R
ISLAND LAKE    CLOUDY    54  50  87 N12G18    29.70R
PILOT MOUND      N/A     54  45  71 NW22G30     N/A
THE PAS        CLOUDY    48  46  93 NW15      29.88R
THOMPSON       CLOUDY    46  39  76 NE15G23   29.86R
WINNIPEG       LGT RAIN  55  52  88 NW17G29   29.81R
LYNN LAKE      CLOUDY    48  37  66 NE14G20   29.98R
CHURCHILL      MOSUNNY   43  37  81 N12       29.95R
GILLAM         CLOUDY    46  41  81 NE20G31   29.85R
$$
                ***SASKATCHEWAN***

CITY           SKY/WX    TMP DP  RH WIND       PRES   REMARKS
ESTEVAN        PTSUNNY   52  41  66 NW25G35   30.07S
KINDERSLEY     PTSUNNY   50  41  71 NW9       30.20S
LLOYDMINSTER   MOSUNNY   55  43  62 W10       30.17S
PRINCE ALBERT  PTSUNNY   48  37  66 NW18G28   30.08S
REGINA         MOSUNNY   52  37  58 NW29G37   30.11S
YORKTON        CLOUDY    48  39  71 NW17G26   29.99S


USA.gov is the U.S. government's official web portal to all federal, state and local government web resources and services.